Fairbanks, AK

5:21 PM AKST on January 16, 2018 (GMT -0900)
Fairbanks International

Weather History for PAFA - August, 2014

Change the Weather History Date:

Friday, August 8, 2014

  Actual Average Record
Temperature  
Mean Temperature 62 °F 58 °F  
Max Temperature 75 °F 68 °F 85 °F (1966)
Min Temperature 48 °F 49 °F 33 °F (1959)
Degree Days  
Heating Degree Days 3 7  
Month to date heating degree days 22 49  
Since 1 June heating degree days 351 317  
Since 1 July heating degree days 159 157  
Cooling Degree Days 0 0  
Month to date cooling degree days 2 0  
Year to date cooling degree days 22 55  
Since 1 June cooling degree days 22 54  
Growing Degree Days 12 (Base 50)    
Moisture  
Dew Point 44 °F    
Average Humidity 50    
Maximum Humidity 83    
Minimum Humidity 18    
Precipitation  
Precipitation 0.00 in 0.07 in 0.67 in (1918)
Month to date precipitation 1.72 0.55  
Year to date precipitation 12.15 6.24  
Snow  
Snow 0.00 in 0.00 in 0.00 in (2002)
Month to date snowfall 0.0 0.0  
Since 1 June snowfall 0.0 0.0  
Since 1 July snowfall 0.0 0.0  
Snow Depth 0.00 in    
Sea Level Pressure  
Sea Level Pressure 29.63 in    
Wind  
Wind Speed 6 mph (ENE)    
Max Wind Speed 13 mph    
Max Gust Speed 23 mph    
Visibility 10 miles    
Events      
T = Trace of Precipitation, MM = Missing Value Source: NWS Daily Summary

Daily Weather History Graph

Daily Weather History Graph

Search for Another Location

Airport or City:

Trip Planner

Search our weather history database for the weather conditions in past years. The results will help you decide how hot, cold, wet, or windy it might be!

Date:

Astronomy

Aug. 08, 2014 Rise Set
Actual Time 5:15 AM AKDT 10:35 PM AKDT
Civil Twilight 3:56 AM AKDT 11:53 PM AKDT
Nautical Twilight Sun does not rise Sun does not rise
Astronomical Twilight Sun does not rise Sun does not rise
Moon 8:58 PM AKDT (8/8) 2:42 AM AKDT (8/8)
Length of Visible Light 19h 57m
Length of Day
17h 20m
Waxing Gibbous, 94% of the Moon is Illuminated
Aug 8
Waxing Gibbous
Aug 10
Full
Aug 17
Last Quarter
Aug 25
New
Sep 2
First Quarter

Hourly Weather History & Observations

Time (AKDT) Temp. Dew Point Humidity Pressure Visibility Wind Dir Wind Speed Gust Speed Precip Events Conditions
12:53 AM 55.0 °F 46.9 °F 74% 29.63 in 10.0 mi North 3.5 mph - N/A   Partly Cloudy
1:53 AM 54.0 °F 46.0 °F 75% 29.65 in 10.0 mi NE 4.6 mph - N/A   Partly Cloudy
2:53 AM 52.0 °F 46.9 °F 83% 29.65 in 10.0 mi Calm Calm - N/A   Partly Cloudy
3:53 AM 51.1 °F 45.0 °F 80% 29.66 in 10.0 mi Calm Calm - N/A   Partly Cloudy
4:53 AM 48.9 °F 43.0 °F 80% 29.65 in 10.0 mi NNE 5.8 mph - N/A   Partly Cloudy
5:53 AM 50.0 °F 43.0 °F 77% 29.65 in 10.0 mi NNE 5.8 mph - N/A   Partly Cloudy
6:53 AM 53.1 °F 45.0 °F 74% 29.65 in 10.0 mi NNE 5.8 mph - N/A   Partly Cloudy
7:53 AM 57.9 °F 46.0 °F 65% 29.64 in 10.0 mi ENE 5.8 mph - N/A   Partly Cloudy
8:53 AM 62.1 °F 44.1 °F 52% 29.64 in 10.0 mi East 6.9 mph - N/A   Partly Cloudy
9:53 AM 64.9 °F 44.1 °F 47% 29.64 in 10.0 mi East 9.2 mph - N/A   Partly Cloudy
10:53 AM 68.0 °F 44.1 °F 42% 29.63 in 10.0 mi East 5.8 mph - N/A   Partly Cloudy
11:53 AM 70.0 °F 42.1 °F 36% 29.63 in 10.0 mi East 10.4 mph - N/A   Scattered Clouds
12:53 PM 72.0 °F 43.0 °F 35% 29.62 in 10.0 mi East 9.2 mph - N/A   Scattered Clouds
1:53 PM 73.9 °F 41.0 °F 30% 29.62 in 10.0 mi SE 10.4 mph - N/A   Scattered Clouds
2:53 PM 75.0 °F 42.1 °F 31% 29.61 in 10.0 mi East 11.5 mph 20.7 mph N/A   Scattered Clouds
3:53 PM 73.9 °F 39.0 °F 28% 29.61 in 10.0 mi East 12.7 mph 23.0 mph N/A   Scattered Clouds
4:53 PM 75.0 °F 37.9 °F 26% 29.61 in 10.0 mi ESE 10.4 mph - N/A   Mostly Cloudy
5:53 PM 75.0 °F 39.9 °F 28% 29.60 in 10.0 mi East 12.7 mph - N/A   Scattered Clouds
6:53 PM 73.9 °F 39.9 °F 29% 29.59 in 10.0 mi ESE 9.2 mph - N/A   Scattered Clouds
7:53 PM 73.0 °F 41.0 °F 31% 29.59 in 10.0 mi ESE 8.1 mph - N/A   Scattered Clouds
8:53 PM 71.1 °F 44.1 °F 38% 29.60 in 10.0 mi ESE 4.6 mph - N/A   Mostly Cloudy
9:53 PM 66.9 °F 45.0 °F 45% 29.61 in 10.0 mi East 4.6 mph - N/A   Mostly Cloudy
10:53 PM 60.1 °F 48.9 °F 67% 29.62 in 10.0 mi NNE 5.8 mph - N/A   Scattered Clouds
11:53 PM 57.9 °F 48.9 °F 72% 29.63 in 10.0 mi Calm Calm - N/A   Scattered Clouds